Weather History for Highgate, VT

Change the Weather History Date:

Tuesday, January 1, 2013

  Actual Average (KPBG) Record (KPBG)
Temperature  
Mean Temperature 16 °F 19 °F  
Max Temperature 32 °F 29 °F 58 °F (1966)
Min Temperature 0 °F 10 °F -13 °F (1981)
Degree Days  
Heating Degree Days 49 46  
Month to date heating degree days 46  
Since 1 July heating degree days 2932  
Cooling Degree Days 0 0  
Month to date cooling degree days 0  
Year to date cooling degree days 0  
Moisture  
Dew Point 4 °F    
Average Humidity 66    
Maximum Humidity 92    
Minimum Humidity 53    
Precipitation  
Precipitation 0.00 in - 0.80 in (1961)
Month to date precipitation  
Year to date precipitation  
Sea Level Pressure  
Sea Level Pressure 29.86 in    
Wind  
Wind Speed 7 mph (WNW)    
Max Wind Speed 12 mph    
Max Gust Speed 24 mph    
Visibility 10 miles    
Events Snow    
T = Trace of Precipitation, MM = Missing Value Source: NWS Daily Summary

Daily Weather History Graph

Daily Weather History Graph

Search for Another Location

Airport:

Trip Planner

Search our weather history database for the weather conditions in past years. The results will help you decide how hot, cold, wet, or windy it might be!

Date:

Astronomy

Jan. 01, 2013 Rise Set
Actual Time 7:30 AM EST 4:21 PM EST
Civil Twilight 6:56 AM EST 4:55 PM EST
Nautical Twilight 6:19 AM EST 5:32 PM EST
Astronomical Twilight 5:44 AM EST 6:08 PM EST
Moon 9:02 PM EST (1/1) 9:29 AM EST (1/1)
Length of Visible Light 9h 58m
Length of Day
8h 51m
Waning Gibbous, 83% of the Moon is Illuminated
Jan 1
Waning Gibbous
Jan 4
Last Quarter
Jan 11
New
Jan 18
First Quarter
Jan 26
Full

Hourly Weather History & Observations

Time (EST) Temp. Windchill Dew Point Humidity Pressure Visibility Wind Dir Wind Speed Gust Speed Precip Events Conditions
12:15 AM 29.7 °F 22.8 °F 27.5 °F 92% 29.64 in 7.0 mi South 6.9 mph - N/A Snow Light Snow
12:35 AM 30.4 °F 22.9 °F 28.0 °F 91% 29.64 in 7.0 mi SSW 8.1 mph - N/A Snow Light Snow
12:55 AM 31.3 °F 25.6 °F 29.1 °F 92% 29.64 in 7.0 mi WSW 5.8 mph - N/A   Overcast
1:15 AM 32.0 °F 24.2 °F 26.8 °F 81% 29.65 in 4.0 mi NW 9.2 mph 19.6 mph N/A Snow Light Snow
1:35 AM 28.9 °F 21.1 °F 24.1 °F 82% 29.66 in 7.0 mi West 8.1 mph 23.0 mph N/A Snow Light Snow
1:55 AM 29.7 °F 20.1 °F 23.4 °F 77% 29.67 in 10.0 mi West 11.5 mph 18.4 mph N/A   Overcast
2:15 AM 29.7 °F 22.0 °F 21.2 °F 71% 29.68 in 10.0 mi West 8.1 mph 21.9 mph N/A   Overcast
2:35 AM 29.7 °F 20.1 °F 21.2 °F 71% 29.69 in 10.0 mi NW 11.5 mph 23.0 mph N/A   Overcast
2:55 AM 27.1 °F 17.5 °F 19.4 °F 73% 29.70 in 10.0 mi WNW 10.4 mph 24.2 mph N/A Snow Light Snow
3:15 AM 27.1 °F 18.2 °F 16.9 °F 65% 29.70 in 10.0 mi West 9.2 mph 21.9 mph N/A   Overcast
3:35 AM 27.1 °F 18.2 °F 17.4 °F 67% 29.72 in 10.0 mi WNW 9.2 mph 24.2 mph N/A   Overcast
3:55 AM 24.6 °F 15.8 °F 14.4 °F 65% 29.74 in 10.0 mi WNW 8.1 mph 18.4 mph N/A   Overcast
4:15 AM 23.4 °F 12.8 °F 13.1 °F 65% 29.75 in 10.0 mi West 10.4 mph 18.4 mph N/A   Overcast
4:35 AM 22.1 °F 14.7 °F 11.7 °F 64% 29.76 in 10.0 mi West 5.8 mph - N/A   Overcast
4:55 AM 19.9 °F 9.3 °F 8.4 °F 61% 29.79 in 10.0 mi West 9.2 mph 18.4 mph N/A   Mostly Cloudy
5:15 AM 18.5 °F 9.3 °F 7.7 °F 63% 29.80 in 10.0 mi West 6.9 mph 17.3 mph N/A   Mostly Cloudy
5:35 AM 17.1 °F 6.6 °F 7.7 °F 67% 29.81 in 10.0 mi WNW 8.1 mph - N/A   Scattered Clouds
5:55 AM 16.3 °F 7.8 °F 7.9 °F 69% 29.83 in 10.0 mi WNW 5.8 mph - N/A   Scattered Clouds
6:15 AM 14.5 °F 5.7 °F 6.6 °F 71% 29.84 in 10.0 mi WNW 5.8 mph - N/A   Mostly Cloudy
6:35 AM 14.5 °F 4.6 °F 6.6 °F 71% 29.86 in 10.0 mi NW 6.9 mph - N/A   Overcast
6:55 AM 13.1 °F 0.9 °F 3.7 °F 66% 29.87 in 10.0 mi WNW 9.2 mph - N/A   Overcast
7:15 AM 12.0 °F 0.5 °F 2.1 °F 65% 29.88 in 10.0 mi WNW 8.1 mph 19.6 mph N/A   Scattered Clouds
7:35 AM 12.0 °F 4.1 °F 2.7 °F 66% 29.89 in 10.0 mi WNW 4.6 mph - N/A   Clear
7:55 AM 10.2 °F -1.7 °F 1.4 °F 68% 29.90 in 10.0 mi West 8.1 mph - N/A   Clear
8:15 AM 9.5 °F -0.3 °F 0.5 °F 67% 29.91 in 10.0 mi WNW 5.8 mph - N/A   Clear
8:35 AM 11.7 °F 1.1 °F 1.8 °F 65% 29.91 in 10.0 mi West 6.9 mph - N/A   Clear
8:55 AM 12.0 °F 5.9 °F 1.9 °F 64% 29.91 in 10.0 mi WNW 3.5 mph - N/A   Clear
9:15 AM 12.0 °F 2.7 °F 1.4 °F 62% 29.92 in 10.0 mi WNW 5.8 mph - N/A   Clear
9:35 AM 12.0 °F -0.4 °F 1.2 °F 62% 29.92 in 10.0 mi WNW 9.2 mph - N/A   Clear
9:55 AM 12.0 °F 4.1 °F 0.5 °F 60% 29.92 in 10.0 mi West 4.6 mph - N/A   Clear
10:15 AM 12.2 °F 4.3 °F -0.4 °F 57% 29.92 in 10.0 mi WNW 4.6 mph - N/A   Clear
10:35 AM 12.7 °F 2.4 °F -0.0 °F 57% 29.92 in 10.0 mi WNW 6.9 mph - N/A   Clear
10:55 AM 14.2 °F 2.2 °F 0.9 °F 56% 29.91 in 10.0 mi West 9.2 mph 16.1 mph N/A   Clear
11:15 AM 14.2 °F 4.1 °F 0.5 °F 55% 29.91 in 10.0 mi WNW 6.9 mph 18.4 mph N/A   Clear
11:35 AM 14.5 °F 4.6 °F 0.9 °F 55% 29.90 in 10.0 mi West 6.9 mph - N/A   Clear
11:55 AM 14.5 °F 1.1 °F 1.2 °F 56% 29.90 in 10.0 mi West 11.5 mph 17.3 mph N/A   Clear
12:15 PM 14.5 °F 3.6 °F 1.4 °F 56% 29.90 in 10.0 mi West 8.1 mph - N/A   Clear
12:35 PM 14.5 °F 2.7 °F 1.6 °F 57% 29.89 in 10.0 mi WNW 9.2 mph 16.1 mph N/A   Clear
12:55 PM 15.3 °F 4.4 °F 2.1 °F 56% 29.88 in 10.0 mi West 8.1 mph - N/A   Clear
1:15 PM 14.9 °F 5.0 °F 1.2 °F 55% 29.88 in 10.0 mi West 6.9 mph 17.3 mph N/A   Clear
1:35 PM 15.3 °F 6.6 °F 0.9 °F 53% 29.87 in 10.0 mi West 5.8 mph - N/A   Clear
1:55 PM 14.5 °F 4.6 °F 1.0 °F 55% 29.88 in 10.0 mi West 6.9 mph 16.1 mph N/A   Clear
2:15 PM 14.5 °F 3.6 °F 0.5 °F 54% 29.89 in 10.0 mi West 8.1 mph - N/A   Clear
2:35 PM 14.5 °F 5.7 °F 0.9 °F 55% 29.89 in 10.0 mi West 5.8 mph - N/A   Clear
2:55 PM 13.8 °F 3.7 °F 0.5 °F 56% 29.89 in 10.0 mi West 6.9 mph - N/A   Clear
3:15 PM 13.1 °F 1.8 °F -0.6 °F 54% 29.89 in 10.0 mi WNW 8.1 mph - N/A   Clear
3:35 PM 12.0 °F 2.7 °F -1.1 °F 56% 29.89 in 10.0 mi WNW 5.8 mph - N/A   Clear
3:55 PM 12.0 °F 5.9 °F -0.0 °F 59% 29.89 in 10.0 mi NW 3.5 mph - N/A   Clear
4:15 PM 9.5 °F 3.0 °F -1.5 °F 61% 29.90 in 10.0 mi WNW 3.5 mph - N/A   Clear
4:35 PM 9.3 °F 1.0 °F -1.3 °F 62% 29.90 in 10.0 mi WNW 4.6 mph - N/A   Clear
4:55 PM 8.2 °F - -2.2 °F 63% 29.91 in 10.0 mi Calm Calm - N/A   Clear
5:15 PM 7.0 °F - -2.7 °F 64% 29.92 in 10.0 mi Calm Calm - N/A   Clear
5:35 PM 6.8 °F -3.5 °F -2.6 °F 66% 29.92 in 10.0 mi West 5.8 mph - N/A   Clear
5:55 PM 6.8 °F -0.1 °F -2.6 °F 66% 29.93 in 10.0 mi West 3.5 mph - N/A   Clear
6:15 PM 6.8 °F -0.1 °F -2.4 °F 66% 29.94 in 10.0 mi West 3.5 mph - N/A   Clear
6:35 PM 6.8 °F -0.1 °F -2.2 °F 67% 29.94 in 10.0 mi WNW 3.5 mph - N/A   Clear
6:55 PM 6.8 °F - -2.2 °F 67% 29.95 in 10.0 mi Calm Calm - N/A   Clear
7:15 PM 5.7 °F - -2.4 °F 69% 29.97 in 10.0 mi Calm Calm - N/A   Clear
7:35 PM 5.2 °F -1.9 °F -2.9 °F 69% 29.97 in 10.0 mi West 3.5 mph - N/A   Clear
7:55 PM 6.6 °F - -1.8 °F 68% 29.97 in 10.0 mi Calm Calm - N/A   Clear
8:15 PM 4.5 °F - -4.0 °F 68% 29.97 in 10.0 mi Calm Calm - N/A   Clear
8:35 PM 4.8 °F - -3.6 °F 68% 29.95 in 10.0 mi Calm Calm - N/A   Clear
8:55 PM 4.5 °F - -3.6 °F 69% 29.95 in 10.0 mi Calm Calm - N/A   Clear
9:15 PM 0.9 °F - -5.8 °F 74% 29.95 in 10.0 mi Calm Calm - N/A   Scattered Clouds
9:35 PM -0.4 °F - -5.8 °F 78% 29.95 in 10.0 mi Calm Calm - N/A   Mostly Cloudy
9:55 PM 0.9 °F - -5.1 °F 76% 29.94 in 10.0 mi Calm Calm - N/A   Overcast
10:15 PM 0.9 °F - -5.3 °F 75% 29.94 in 10.0 mi Calm Calm - N/A   Overcast
10:35 PM -0.0 °F - -5.4 °F 78% 29.94 in 10.0 mi Calm Calm - N/A   Overcast
10:55 PM 1.9 °F -5.6 °F -3.1 °F 79% 29.94 in 10.0 mi SE 3.5 mph - N/A   Overcast
11:15 PM 0.5 °F - -4.5 °F 79% 29.94 in 10.0 mi Calm Calm - N/A   Overcast
11:55 PM 4.5 °F - -1.8 °F 75% 29.94 in 7.0 mi Calm Calm - N/A   Overcast